Change the Weather History Date:

Wednesday, October 2, 2013

  Actual Average Record
Temperature  
Mean Temperature 54 °F -  
Max Temperature 66 °F 52 °F 73 °F (2006)
Min Temperature 42 °F 35 °F 19 °F (2003)
Degree Days  
Heating Degree Days 11    
Growing Degree Days 4 (Base 50)    
Moisture  
Dew Point 35 °F    
Average Humidity 55    
Maximum Humidity 93    
Minimum Humidity 26    
Precipitation  
Precipitation 0.03 in - - ()
Sea Level Pressure  
Sea Level Pressure 29.99 in    
Wind  
Wind Speed 5 mph (West)    
Max Wind Speed 10 mph    
Max Gust Speed 22 mph    
Visibility 10 miles    
Events Rain    
Averages and records for this station are not official NWS values.
T = Trace of Precipitation, MM = Missing Value Source: NWS Daily Summary

Daily Weather History Graph

Daily Weather History Graph

Search for Another Location

Airport or City:

Trip Planner

Search our weather history database for the weather conditions in past years. The results will help you decide how hot, cold, wet, or windy it might be!

Date:

Astronomy

Oct. 02, 2013 Rise Set
Actual Time 7:02 AM CDT 6:38 PM CDT
Civil Twilight 6:31 AM CDT 7:09 PM CDT
Nautical Twilight 5:55 AM CDT 7:44 PM CDT
Astronomical Twilight 5:19 AM CDT 8:21 PM CDT
Moon 4:27 AM CDT (10/2) 5:20 PM CDT (10/2)
Length of Visible Light 12h 37m
Length of Day
11h 35m
Waning Crescent, 6% of the Moon is Illuminated
Oct 2
Waning Crescent
Oct 4
New
Oct 11
First Quarter
Oct 18
Full
Oct 26
Last Quarter

Hourly Weather History & Observations

Time (CDT) Temp. Windchill Dew Point Humidity Pressure Visibility Wind Dir Wind Speed Gust Speed Precip Events Conditions
12:13 AM 48.2 °F - 33.8 °F 58% 29.86 in 10.0 mi SW 3.5 mph - N/A   Clear
12:33 AM 48.2 °F - 33.8 °F 58% 29.86 in 10.0 mi WSW 4.6 mph - N/A   Clear
12:53 AM 48.2 °F - 32.0 °F 54% 29.86 in 10.0 mi WSW 4.6 mph - N/A   Clear
1:13 AM 48.2 °F - 32.0 °F 54% 29.86 in 10.0 mi West 6.9 mph - N/A   Clear
1:33 AM 48.2 °F - 33.8 °F 58% 29.88 in 10.0 mi WSW 4.6 mph - N/A   Clear
1:53 AM 48.2 °F - 33.8 °F 58% 29.88 in 10.0 mi WSW 4.6 mph - N/A   Clear
2:13 AM 46.4 °F 44.3 °F 33.8 °F 62% 29.89 in 10.0 mi WSW 4.6 mph - N/A   Clear
2:34 AM 46.4 °F 43.5 °F 33.8 °F 62% 29.90 in 10.0 mi WSW 5.8 mph - N/A   Clear
2:54 AM 46.4 °F 44.3 °F 33.8 °F 62% 29.90 in 10.0 mi WSW 4.6 mph - N/A   Clear
3:13 AM 46.4 °F 43.5 °F 33.8 °F 62% 29.90 in 10.0 mi West 5.8 mph - N/A   Clear
3:33 AM 46.4 °F 44.3 °F 33.8 °F 62% 29.91 in 10.0 mi WSW 4.6 mph - N/A   Clear
3:54 AM 46.4 °F 44.3 °F 33.8 °F 62% 29.92 in 10.0 mi WSW 4.6 mph - N/A   Clear
4:13 AM 44.6 °F 42.2 °F 33.8 °F 66% 29.92 in 10.0 mi WSW 4.6 mph - N/A   Clear
4:33 AM 44.6 °F 42.2 °F 33.8 °F 66% 29.93 in 10.0 mi WSW 4.6 mph - N/A   Clear
4:54 AM 44.6 °F 41.4 °F 33.8 °F 66% 29.93 in 10.0 mi WSW 5.8 mph - N/A   Clear
5:13 AM 44.6 °F 41.4 °F 33.8 °F 66% 29.94 in 10.0 mi WSW 5.8 mph - N/A   Clear
5:33 AM 44.6 °F 42.2 °F 33.8 °F 66% 29.94 in 10.0 mi West 4.6 mph - N/A   Clear
5:54 AM 44.6 °F 42.2 °F 33.8 °F 66% 29.94 in 10.0 mi West 4.6 mph - N/A   Clear
6:13 AM 44.6 °F 42.2 °F 33.8 °F 66% 29.94 in 10.0 mi West 4.6 mph - N/A   Clear
6:33 AM 44.6 °F 40.7 °F 33.8 °F 66% 29.94 in 10.0 mi West 6.9 mph - N/A   Clear
6:53 AM 44.6 °F 43.1 °F 33.8 °F 66% 29.95 in 10.0 mi West 3.5 mph - N/A   Clear
7:14 AM 42.8 °F 40.1 °F 33.8 °F 70% 29.96 in 10.0 mi West 4.6 mph - N/A   Clear
7:33 AM 42.8 °F - 33.8 °F 70% 29.96 in 10.0 mi Calm Calm - N/A   Clear
7:53 AM 44.6 °F - 33.8 °F 66% 29.97 in 10.0 mi Calm Calm - N/A   Clear
8:13 AM 46.4 °F 45.2 °F 33.8 °F 62% 29.98 in 10.0 mi SW 3.5 mph - N/A   Clear
8:34 AM 48.2 °F - 35.6 °F 62% 29.98 in 10.0 mi WSW 4.6 mph - N/A   Clear
8:53 AM 51.8 °F - 35.6 °F 54% 29.99 in 10.0 mi WSW 4.6 mph - N/A   Clear
9:13 AM 53.6 °F - 35.6 °F 51% 29.99 in 10.0 mi WSW 4.6 mph - N/A   Clear
9:34 AM 55.4 °F - 35.6 °F 47% 30.00 in 10.0 mi SW 5.8 mph - N/A   Clear
9:53 AM 57.2 °F - 35.6 °F 44% 30.01 in 10.0 mi WSW 5.8 mph - N/A   Clear
10:13 AM 59.0 °F - 35.6 °F 42% 30.01 in 10.0 mi WSW 6.9 mph - N/A   Clear
10:33 AM 60.8 °F - 33.8 °F 36% 30.01 in 10.0 mi West 5.8 mph - N/A   Clear
10:54 AM 62.6 °F - 32.0 °F 32% 30.01 in 10.0 mi West 6.9 mph 20.7 mph N/A   Clear
11:13 AM 62.6 °F - 32.0 °F 32% 30.01 in 10.0 mi WSW 8.1 mph 19.6 mph N/A   Clear
11:33 AM 64.4 °F - 32.0 °F 30% 30.02 in 10.0 mi WSW 10.4 mph 21.9 mph N/A   Clear
11:54 AM 62.6 °F - 30.2 °F 30% 30.02 in 10.0 mi WSW 10.4 mph 17.3 mph N/A   Clear
12:13 PM 62.6 °F - 30.2 °F 30% 30.02 in 10.0 mi WSW 9.2 mph - N/A   Clear
12:34 PM 64.4 °F - 32.0 °F 30% 30.02 in 10.0 mi WSW 6.9 mph - N/A   Clear
12:53 PM 64.4 °F - 30.2 °F 28% 30.02 in 10.0 mi WSW 8.1 mph 16.1 mph N/A   Clear
1:13 PM 64.4 °F - 30.2 °F 28% 30.02 in 10.0 mi WSW 6.9 mph - N/A   Clear
1:34 PM 66.2 °F - 30.2 °F 26% 30.02 in 10.0 mi West 8.1 mph 19.6 mph N/A   Clear
1:53 PM 66.2 °F - 30.2 °F 26% 30.02 in 10.0 mi West 5.8 mph - N/A   Clear
2:13 PM 64.4 °F - 30.2 °F 28% 30.02 in 10.0 mi WNW 10.4 mph 16.1 mph N/A   Clear
2:34 PM 64.4 °F - 30.2 °F 28% 30.02 in 10.0 mi WNW 8.1 mph - N/A   Clear
2:53 PM 66.2 °F - 30.2 °F 26% 30.01 in 10.0 mi West 9.2 mph - N/A   Clear
3:13 PM 66.2 °F - 30.2 °F 26% 30.01 in 10.0 mi NW 8.1 mph - N/A   Clear
3:34 PM 64.4 °F - 28.4 °F 26% 30.01 in 10.0 mi WNW 9.2 mph - N/A   Clear
3:53 PM 62.6 °F - 30.2 °F 30% 30.01 in 10.0 mi WNW 8.1 mph - N/A   Clear
4:13 PM 64.4 °F - 30.2 °F 28% 30.01 in 10.0 mi NW 10.4 mph 17.3 mph N/A   Clear
4:34 PM 62.6 °F - 28.4 °F 27% 30.01 in 10.0 mi WNW 6.9 mph - N/A   Clear
4:53 PM 60.8 °F - 30.2 °F 31% 30.01 in 10.0 mi NW 6.9 mph - N/A   Clear
5:13 PM 59.0 °F - 33.8 °F 39% 30.01 in 10.0 mi NNW 8.1 mph - N/A   Clear
5:34 PM 57.2 °F - 33.8 °F 41% 30.02 in 10.0 mi NNW 6.9 mph - N/A   Scattered Clouds
5:53 PM 57.2 °F - 35.6 °F 44% 30.03 in 10.0 mi NNW 4.6 mph - N/A   Clear
6:13 PM 55.4 °F - 35.6 °F 47% 30.04 in 10.0 mi NNW 4.6 mph - N/A   Clear
6:33 PM 55.4 °F - 35.6 °F 47% 30.04 in 10.0 mi Calm Calm - N/A Rain Light Rain
6:53 PM 53.6 °F - 37.4 °F 54% 30.05 in 10.0 mi North 6.9 mph - N/A Rain Light Rain
7:14 PM 53.6 °F - 39.2 °F 58% 30.07 in 10.0 mi WNW 3.5 mph - N/A Rain Light Rain
7:33 PM 51.8 °F - 42.8 °F 71% 30.07 in 7.0 mi NW 3.5 mph - N/A Rain Rain
7:53 PM 48.2 °F - 42.8 °F 82% 30.07 in 10.0 mi North 5.8 mph - 0.01 in Rain Light Rain
8:13 PM 50.0 °F - 42.8 °F 76% 30.06 in 10.0 mi NNW 3.5 mph - N/A Rain Light Rain
8:33 PM 48.2 °F - 42.8 °F 82% 30.07 in 10.0 mi Calm Calm - 0.01 in Rain Light Rain
8:53 PM 48.2 °F - 44.6 °F 87% 30.06 in 10.0 mi Calm Calm - 0.01 in Rain Light Rain
9:14 PM 48.2 °F - 44.6 °F 87% 30.06 in 10.0 mi Calm Calm - N/A   Light Drizzle
9:33 PM 46.4 °F - 44.6 °F 93% 30.04 in 10.0 mi Calm Calm - N/A   Drizzle
9:53 PM 48.2 °F - 42.8 °F 82% 30.05 in 10.0 mi Calm Calm - 0.01 in   Light Drizzle
10:14 PM 46.4 °F - 42.8 °F 87% 30.05 in 10.0 mi Calm Calm - N/A   Overcast
10:33 PM 46.4 °F - 42.8 °F 87% 30.05 in 10.0 mi Calm Calm - N/A   Overcast
10:53 PM 48.2 °F - 42.8 °F 82% 30.05 in 10.0 mi Calm Calm - N/A   Overcast
11:13 PM 46.4 °F - 44.6 °F 93% 30.05 in 10.0 mi Calm Calm - N/A   Overcast
11:34 PM 46.4 °F - 44.6 °F 93% 30.04 in 10.0 mi Calm Calm - N/A   Overcast
11:53 PM 46.4 °F - 42.8 °F 87% 30.03 in 10.0 mi Calm Calm - N/A   Overcast